DW4666 Weather Reports


time (UTC)temp
C
wind
direction
speed
KPH
gust
KPH
rain 1hr
cm
rain 24hr
cm
rain mn
cm
humidity
%
barometer
mb
20260506190004 16 93 3.2 6.4 0.00 0.00 0.00 79 1007.2
20260506185403 16 100 3.2 9.7 0.00 0.00 0.00 79 1007.6
20260506184503 16 82 3.2 9.7 0.00 0.00 0.00 78 1007.3
20260506183603 16 97 6.4 17.7 0.00 0.00 0.00 78 1007.3
20260506182703 16 80 8.0 17.7 0.00 0.00 0.00 77 1007.2
20260506181803 17 123 3.2 11.3 0.00 0.00 0.00 73 1007.1
20260506180903 17 185 4.8 19.3 0.00 0.00 0.00 71 1007.2
20260506180004 18 187 4.8 12.9 0.00 0.00 0.00 65 1007.1
20260506175403 20 186 6.4 20.9 0.00 0.00 0.00 57 1007.1
20260506174503 21 199 6.4 17.7 0.00 0.00 0.00 50 1006.8
20260506173603 21 198 8.0 17.7 0.00 0.00 0.00 48 1006.8
20260506172912 22 202 4.8 14.5 0.00 0.00 0.00 47 1006.6
20260506171803 22 210 3.2 6.4 0.00 0.00 0.00 45 1006.0
20260506170903 22 203 1.6 3.2 0.00 0.00 0.00 45 1006.2
20260506170003 23 193 1.6 4.8 0.00 0.00 0.00 44 1006.3
20260506165403 23 183 3.2 6.4 0.00 0.00 0.00 43 1006.2
20260506164713 23 191 3.2 6.4 0.00 0.00 0.00 42 1006.2
20260506163603 24 206 3.2 6.4 0.00 0.00 0.00 41 1006.3
20260506162914 25 218 3.2 9.7 0.00 0.00 0.00 41 1006.3
20260506161803 25 205 4.8 8.0 0.00 0.00 0.00 39 1006.4
20260506161113 25 206 4.8 11.3 0.00 0.00 0.00 39 1006.2
20260506160214 25 215 4.8 11.3 0.00 0.00 0.00 39 1006.6
20260506155403 25 211 4.8 11.3 0.00 0.00 0.00 39 1006.3
20260506154503 24 204 4.8 9.7 0.00 0.00 0.00 40 1006.6
20260506153812 24 195 6.4 16.1 0.00 0.00 0.00 40 1006.6
20260506152703 25 220 6.4 14.5 0.00 0.00 0.00 39 1006.6
20260506151803 25 203 6.4 16.1 0.00 0.00 0.00 38 1006.7
20260506150903 25 198 4.8 12.9 0.00 0.00 0.00 38 1006.6
20260506150003 25 212 6.4 17.7 0.00 0.00 0.00 38 1006.7
20260506145403 25 200 6.4 17.7 0.00 0.00 0.00 38 1006.8
20260506144712 25 201 6.4 17.7 0.00 0.00 0.00 39 1007.0
20260506143603 25 207 6.4 16.1 0.00 0.00 0.00 39 1006.9
20260506142703 25 214 8.0 17.7 0.00 0.00 0.00 37 1006.8
20260506141803 25 204 9.7 19.3 0.00 0.00 0.00 38 1007.1
20260506140903 25 209 6.4 14.5 0.00 0.00 0.00 36 1006.9
20260506140003 25 209 8.0 16.1 0.00 0.00 0.00 38 1007.1
20260506135403 24 201 8.0 16.1 0.00 0.00 0.00 37 1007.1
20260506134503 25 199 6.4 14.5 0.00 0.00 0.00 37 1007.1
20260506133603 25 211 8.0 19.3 0.00 0.00 0.00 39 1007.1
20260506132703 25 206 8.0 20.9 0.00 0.00 0.00 40 1007.1
20260506131803 24 192 8.0 17.7 0.00 0.00 0.00 41 1007.2
20260506130922 25 199 6.4 14.5 0.00 0.00 0.00 40 1007.2
20260506130003 24 206 8.0 16.1 0.00 0.00 0.00 39 1007.4
20260506125403 25 200 8.0 19.3 0.00 0.00 0.00 36 1007.4
20260506124503 24 189 9.7 19.3 0.00 0.00 0.00 39 1007.4
20260506123603 25 202 8.0 22.5 0.00 0.00 0.00 39 1007.3
20260506122703 23 200 8.0 24.1 0.00 0.00 0.00 40 1007.7
20260506121803 23 214 8.0 17.7 0.00 0.00 0.00 42 1007.2
20260506120903 24 214 6.4 17.7 0.00 0.00 0.00 41 1007.6
20260506120003 23 215 6.4 16.1 0.00 0.00 0.00 43 1007.4
20260506115614 23 215 4.8 16.1 0.00 0.00 0.00 43 1007.3
20260506114713 23 201 8.0 19.3 0.00 0.00 0.00 44 1007.4
20260506113603 23 209 9.7 27.4 0.00 0.00 0.00 42 1007.3
20260506112703 23 207 8.0 19.3 0.00 0.00 0.00 43 1007.6
20260506111803 23 194 8.0 22.5 0.00 0.00 0.00 43 1007.4
20260506110903 23 210 6.4 16.1 0.00 0.00 0.00 44 1007.7
20260506110003 23 208 8.0 16.1 0.00 0.00 0.00 45 1007.7
20260506105614 23 211 8.0 16.1 0.00 0.00 0.00 45 1007.6
20260506104503 23 192 8.0 19.3 0.00 0.00 0.00 47 1007.8
20260506103812 22 197 8.0 17.7 0.00 0.00 0.00 48 1007.8
20260506102914 22 194 8.0 16.1 0.00 0.00 0.00 46 1007.7
20260506101803 22 206 8.0 25.7 0.00 0.00 0.00 51 1007.9
20260506101112 21 210 8.0 17.7 0.00 0.00 0.00 51 1007.7
20260506100003 22 206 8.0 19.3 0.00 0.00 0.00 50 1007.7
20260506095403 21 204 8.0 17.7 0.00 0.00 0.00 49 1007.4
20260506094503 21 197 8.0 17.7 0.00 0.00 0.00 49 1007.6
20260506093603 21 201 8.0 20.9 0.00 0.00 0.00 50 1007.6
20260506092703 21 213 8.0 20.9 0.00 0.00 0.00 51 1007.6
20260506092013 20 211 8.0 20.9 0.00 0.00 0.00 52 1007.6
20260506090903 21 207 8.0 19.3 0.00 0.00 0.00 51 1007.6
20260506090003 20 204 6.4 16.1 0.00 0.00 0.00 52 1007.7
20260506085403 20 209 6.4 14.5 0.00 0.00 0.00 53 1007.6
20260506084712 20 195 8.0 17.7 0.00 0.00 0.00 52 1007.6
20260506083603 20 196 6.4 16.1 0.00 0.00 0.00 54 1007.4
20260506082913 19 211 9.7 22.5 0.00 0.00 0.00 56 1007.4
20260506081803 19 210 6.4 19.3 0.00 0.00 0.00 54 1007.4
20260506081114 21 212 6.4 17.7 0.00 0.00 0.00 51 1007.2
20260506072703 20 192 8.0 17.7 0.00 0.00 0.00 50 1006.8
20260506071803 20 208 6.4 20.9 0.00 0.00 0.00 50 1006.9
20260506070903 19 195 8.0 20.9 0.00 0.00 0.00 52 1006.8
20260506061803 18 190 4.8 9.7 0.00 0.00 0.00 52 1006.9
20260506060903 18 195 4.8 9.7 0.00 0.00 0.00 52 1006.9
20260506050903 16 157 1.6 4.8 0.00 0.00 0.00 57 1007.0
20260506044503 15 164 1.6 4.8 0.00 0.00 0.00 60 1006.8
20260506043812 14 127 1.6 4.8 0.00 0.00 0.00 60 1006.9
20260506042703 12 66 0.0 3.2 0.00 0.00 0.00 67 1006.6
20260506042013 11 0 0.0 1.6 0.00 0.00 0.00 72 1006.7
20260506040903 11 141 0.0 1.6 0.00 0.00 0.00 75 1006.7
20260506040003 11 98 0.0 3.2 0.00 0.00 0.00 74 1006.7
20260506035613 10 85 0.0 3.2 0.00 0.00 0.00 75 1006.6
20260506034503 10 84 0.0 3.2 0.00 0.00 0.00 78 1006.7
20260506033603 9 114 1.6 3.2 0.00 0.00 0.00 78 1006.6
20260506032913 9 133 0.0 3.2 0.00 0.00 0.00 79 1006.8
20260506031803 9 102 1.6 3.2 0.00 0.00 0.00 78 1006.5
20260506030903 9 36 0.0 3.2 0.00 0.00 0.00 77 1006.6
20260506030213 9 42 0.0 3.2 0.00 0.00 0.00 78 1006.5
20260506025403 9 89 0.0 3.2 0.00 0.00 0.00 78 1006.7
20260506024503 9 126 1.6 4.8 0.00 0.00 0.00 77 1006.5
20260506023603 9 105 1.6 4.8 0.00 0.00 0.00 77 1006.7
20260506022703 8 82 1.6 3.2 0.00 0.00 0.00 77 1006.6
20260506021803 8 64 0.0 3.2 0.00 0.00 0.00 78 1006.7
20260506021113 8 69 0.0 3.2 0.00 0.00 0.00 78 1006.8
20260506020213 8 77 0.0 3.2 0.00 0.00 0.00 79 1006.8
20260506015403 8 120 0.0 3.2 0.00 0.00 0.00 77 1006.7
20260506014503 9 100 0.0 3.2 0.00 0.00 0.00 77 1007.1
20260506013603 9 88 1.6 3.2 0.00 0.00 0.00 75 1007.0
20260506012703 9 85 0.0 3.2 0.00 0.00 0.00 75 1007.0
20260506011803 10 131 0.0 3.2 0.00 0.00 0.00 73 1007.0
20260506010903 10 120 1.6 6.4 0.00 0.00 0.00 74 1007.0
20260506010003 10 101 1.6 6.4 0.00 0.00 0.00 73 1007.1
20260506005403 10 46 0.0 3.2 0.00 0.00 0.00 72 1006.9
20260506004503 10 68 1.6 3.2 0.00 0.00 0.00 72 1006.9
20260506003603 10 67 0.0 3.2 0.00 0.00 0.00 71 1007.0
20260506002914 10 82 1.6 3.2 0.00 0.00 0.00 71 1007.1
20260506001803 10 75 1.6 3.2 0.00 0.00 0.00 71 1007.1
20260506001113 10 69 0.0 3.2 0.00 0.00 0.00 73 1007.1
20260506000003 10 70 0.0 3.2 0.00 0.00 0.00 72 1007.2
20260505235403 10 129 0.0 3.2 0.00 0.00 0.00 72 1007.1
20260505234503 10 76 1.6 3.2 0.00 0.00 0.00 72 1007.2
20260505233603 10 103 0.0 3.2 0.00 0.00 0.00 72 1007.4
20260505232914 10 118 1.6 3.2 0.00 0.00 0.00 71 1007.6
20260505231803 10 71 0.0 3.2 0.00 0.00 0.00 71 1007.3
20260505230903 10 53 0.0 1.6 0.00 0.00 0.00 71 1007.3
20260505230003 10 63 0.0 3.2 0.00 0.00 0.00 70 1007.7
20260505225403 10 44 0.0 3.2 0.00 0.00 0.00 69 1007.8
20260505224503 11 19 0.0 1.6 0.00 0.00 0.00 68 1007.8
20260505223603 11 20 0.0 1.6 0.00 0.00 0.00 67 1007.8
20260505222913 11 16 0.0 1.6 0.00 0.00 0.00 67 1007.7
20260505222013 11 70 0.0 1.6 0.00 0.00 0.00 68 1007.8
20260505220903 11 57 0.0 1.6 0.00 0.00 0.00 64 1007.7
20260505220213 11 82 0.0 3.2 0.00 0.00 0.00 65 1007.8
20260505215403 11 0 0.0 1.6 0.00 0.00 0.00 64 1008.0
20260505214503 11 135 0.0 1.6 0.00 0.00 0.00 62 1007.9
20260505213603 12 0 0.0 1.6 0.00 0.00 0.00 61 1007.7
20260505212703 12 83 0.0 1.6 0.00 0.00 0.00 59 1007.8
20260505211803 12 137 0.0 3.2 0.00 0.00 0.00 55 1007.7
20260505210903 13 125 0.0 3.2 0.00 0.00 0.00 55 1007.8
20260505210213 13 150 0.0 1.6 0.00 0.00 0.00 51 1007.9
20260505205403 13 161 0.0 3.2 0.00 0.00 0.00 52 1007.9
20260505204503 13 161 1.6 3.2 0.00 0.00 0.00 53 1007.9
20260505203603 13 150 0.0 1.6 0.00 0.00 0.00 54 1007.8
20260505202912 13 174 0.0 1.6 0.00 0.00 0.00 54 1007.8
20260505201803 14 194 0.0 1.6 0.00 0.00 0.00 56 1007.8
20260505200903 15 111 0.0 1.6 0.00 0.00 0.00 51 1007.7
20260505200003 15 173 0.0 3.2 0.00 0.00 0.00 47 1007.7
20260505195403 15 177 0.0 3.2 0.00 0.00 0.00 47 1007.8
20260505194503 16 208 1.6 3.2 0.00 0.00 0.00 45 1007.6
20260505193603 16 212 0.0 3.2 0.00 0.00 0.00 45 1007.6
20260505192912 16 190 0.0 3.2 0.00 0.00 0.00 46 1007.6
20260505191803 16 215 0.0 1.6 0.00 0.00 0.00 45 1007.6
20260505190903 17 207 0.0 1.6 0.00 0.00 0.00 46 1007.6